Regional Weather Roundup
Issued by NWS

Home | Current Version | Previous Version | Graphics & Text | Print | Product List | Glossary On
Versions: 1 2 3 4 5 6 7 8 9 10 11 12 13 14 15 16 17 18 19 20 21 22 23 24 25 26 27 28 29 30 31 32 33 34 35 36 37 38 39 40 41 42 43 44 45 46 47 48 49 50
000
ASUS43 KIND 190000
RWRIN

WEATHER ROUNDUP FOR INDIANA
NATIONAL WEATHER SERVICE INDIANAPOLIS IN
800 PM EDT FRI AUG 18 2017

NOTE: "FAIR" INDICATES FEW OR NO CLOUDS BELOW 12,000 FEET WITH NO
SIGNIFICANT WEATHER AND/OR OBSTRUCTIONS TO VISIBILITY.

* - STATION DOES NOT REPORT WEATHER SUCH AS PRECIPITATION OR FOG.

+ - STATION NOT QUALITY CONTROLLED BY THE NATIONAL WEATHER SERVICE.
    USE DATA WITH CAUTION...ESPECIALLY DEWPOINT AND RELATIVE
    HUMIDITY OBSERVATIONS.

INZ001>003-010>013-019-020-190100-
NORTHWEST INDIANA

CITY           SKY/WX    TMP DP  RH WIND       PRES   REMARKS
GARY /AIRPORT/ PTCLDY    81  57  44 W12       29.86R
MICHIGAN CITY+ CLEAR     72  63  73 N7        29.86R
MONTICELLO +   CLEAR     76  61  59 SW3       29.87S
6HR MIN TEMP:  76; 6HR MAX TEMP:  81;

RENSSELAER +   CLOUDY    77  59  53 SW6       29.88S

$$

LMZ046-743>745-190100-
SOUTHERN LAKE MICHIGAN

STATION/POSITION TIME  TEMP    WIND        PRES    WAVE
                       AIR SEA DIR/SP/G            HT
                 (UTC) (F)     (DEG/KT/KT) (MB)    (FT)
BURNS HARBOR     2340   80     250/ 10/ 13 1011.2R
MICHIGAN CITY    2330   73      30/  7/  8   N/A
5NW MICH CITY    2350   73 75   50/ 10/ 12   N/A     2

$$

INZ004-005-014>016-021>024-190100-
NORTH CENTRAL INDIANA

CITY           SKY/WX    TMP DP  RH WIND       PRES   REMARKS
ELKHART        CLEAR     77  63  61 W6        29.86S
GOSHEN         CLEAR     76  61  59 W8        29.86S
6HR MIN TEMP:  75; 6HR MAX TEMP:  80;

SOUTH BEND     CLEAR     76  64  66 NW6       29.86S
6HR MIN TEMP:  75; 6HR MAX TEMP:  79;


$$

INZ006>009-017-018-025>027-190100-
NORTHEAST INDIANA

CITY           SKY/WX    TMP DP  RH WIND       PRES   REMARKS
FORT WAYNE     PTCLDY    76  62  62 W9        29.88R
6HR MIN TEMP:  76; 6HR MAX TEMP:  81;

KENDALLVILLE + PTCLDY    73  64  72 W5        29.88S

$$

INZ028-029-035-036-043>045-051>053-190100-
WEST CENTRAL INDIANA

CITY           SKY/WX    TMP DP  RH WIND       PRES   REMARKS
LAFAYETTE      CLEAR     77  64  64 SW5       29.87S
6HR MIN TEMP:  77; 6HR MAX TEMP:  83;

TERRE HAUTE    CLEAR     80  61  52 SW6       29.90F
6HR MIN TEMP:  80; 6HR MAX TEMP:  85;


$$

INZ030>032-037>040-046>048-054>057-064-065-190100-
CENTRAL INDIANA

CITY           SKY/WX    TMP DP  RH WIND       PRES   REMARKS
COLUMBUS       PTCLDY    79  59  50 W5        29.92R
GREENWOOD *+   CLEAR     79  60  51 W7        29.92S
6HR MIN TEMP:  79; 6HR MAX TEMP:  82;

INDIANAPOLIS   PTCLDY    79  62  56 W13       29.90R
6HR MIN TEMP:  79; 6HR MAX TEMP:  85;

-EAGLE CREEK   CLEAR     80  61  52 SW3       29.90S
6HR MIN TEMP:  80; 6HR MAX TEMP:  84;

KOKOMO +       CLEAR     77  65  66 W6        29.90R
6HR MIN TEMP:  77; 6HR MAX TEMP:  80;

MT COMFORT *+  CLEAR     79  63  57 W10       29.91S
SHELBYVILLE    CLEAR     79  62  56 SW8       29.91R
6HR MIN TEMP:  79; 6HR MAX TEMP:  84;


$$

INZ033-034-041-042-049-050-058-059-190100-
EAST CENTRAL INDIANA

CITY           SKY/WX    TMP DP  RH WIND       PRES   REMARKS
MUNCIE         CLEAR     78  63  59 W6        29.90R
6HR MIN TEMP:  78; 6HR MAX TEMP:  83;

RICHMOND +     CLEAR     73  64  73 SW7       29.92S

$$

INZ060-061-067>069-081>083-085>088-190100-
SOUTHWEST INDIANA

CITY           SKY/WX    TMP DP  RH WIND       PRES   REMARKS
EVANSVILLE     CLEAR     82  64  54 SW7       29.94S
6HR MIN TEMP:  82; 6HR MAX TEMP:  88;

HUNTINGBURG +  CLEAR     81  66  60 MISG      29.94S
6HR MIN TEMP:  81; 6HR MAX TEMP:  85;


$$

INZ062-063-066-070>080-084-089>092-190100-
SOUTH CENTRAL AND SOUTHEAST INDIANA

CITY           SKY/WX    TMP DP  RH WIND       PRES   REMARKS
BLOOMINGTON    CLEAR     79  61  53 W5        29.93R
6HR MIN TEMP:  79; 6HR MAX TEMP:  85;

MADISON *+     CLEAR     79  63  57 CALM      29.95S
SEYMOUR +      CLEAR     81  63  54 W8        29.93R

$$





USA.gov is the U.S. government's official web portal to all federal, state and local government web resources and services.